Weather History for Palembang, Indonesia

Change the Weather History Date:

Friday, January 11, 2013

  Actual Average Record
Temperature  
Mean Temperature 81 °F -  
Max Temperature 89 °F - - ()
Min Temperature 73 °F - - ()
Cooling Degree Days 16    
Growing Degree Days 31 (Base 50)    
Moisture  
Dew Point 76 °F    
Average Humidity 80    
Maximum Humidity 94    
Minimum Humidity 60    
Precipitation  
Precipitation 0.24 in - - ()
Sea Level Pressure  
Sea Level Pressure 29.82 in    
Wind  
Wind Speed 5 mph ()    
Max Wind Speed 13 mph    
Max Gust Speed -    
Visibility 5.4 miles    
Events Rain    
T = Trace of Precipitation, MM = Missing Value Source: Averaged Metar Reports

Daily Weather History Graph

Daily Weather History Graph

Search for Another Location

Airport:

Trip Planner

Search our weather history database for the weather conditions in past years. The results will help you decide how hot, cold, wet, or windy it might be!

Date:

Astronomy

Jan. 11, 2013 Rise Set
Actual Time 6:00 AM WIB 6:17 PM WIB
Civil Twilight 5:38 AM WIB 6:39 PM WIB
Nautical Twilight 5:12 AM WIB 7:05 PM WIB
Astronomical Twilight 4:46 AM WIB 7:31 PM WIB
Moon 5:10 AM WIB (1/11) 5:48 PM WIB (1/11)
Length of Visible Light 13h 01m
Length of Day
12h 16m
Waning Crescent, 1% of the Moon is Illuminated
Jan 11
Waning Crescent
Jan 12
New
Jan 19
First Quarter
Jan 27
Full
Feb 3
Last Quarter

Hourly Weather History & Observations

Time (WIB) Temp. Heat Index Dew Point Humidity Pressure Visibility Wind Dir Wind Speed Gust Speed Precip Events Conditions
1:00 AM 74 °F - 73 °F 94% 29.85 in 5 mi NW 5.8 mph - - Rain Light Rain
4:00 AM 74 °F - 72 °F 91% 29.80 in 6 mi NW 5.8 mph - -   Partly Cloudy
6:00 AM 73.4 °F - 71.6 °F 94% 29.83 in 1.9 mi Calm Calm - N/A   Mostly Cloudy
6:30 AM 75.2 °F - 73.4 °F 94% 29.83 in 1.9 mi Calm Calm - N/A   Mostly Cloudy
7:00 AM 75 °F - 73 °F 93% 29.85 in 2 mi Calm Calm - -   Mist
7:00 AM 75.2 °F - 73.4 °F 94% 29.83 in 1.9 mi Calm Calm - N/A   Partly Cloudy
7:30 AM 77.0 °F - 73.4 °F 89% 29.83 in 2.5 mi WNW 4.6 mph - N/A   Partly Cloudy
8:00 AM 77.0 °F - 75.2 °F 94% 29.83 in 4.3 mi NW 4.6 mph - N/A   Partly Cloudy
8:30 AM 78.8 °F - 75.2 °F 89% 29.86 in 6.2 mi NW 6.9 mph - N/A   Partly Cloudy
9:00 AM 78.8 °F - 75.2 °F 89% 29.86 in 6.2 mi West 8.1 mph - N/A   Partly Cloudy
9:30 AM 80.6 °F 87.1 °F 77.0 °F 89% 29.86 in 6.2 mi West 8.1 mph - N/A   Partly Cloudy
10:00 AM 83 °F - 76 °F 75% 29.88 in 6 mi NW 8.1 mph - -   Overcast
10:00 AM 82.4 °F 90.9 °F 77.0 °F 84% 29.86 in 6.2 mi WNW 10.4 mph - N/A   Partly Cloudy
10:30 AM 84.2 °F 94.1 °F 77.0 °F 79% 29.86 in 6.2 mi WNW 10.4 mph - N/A   Scattered Clouds
11:00 AM 84.2 °F 94.1 °F 77.0 °F 79% 29.86 in 6.2 mi WNW 12.7 mph - N/A   Mostly Cloudy
11:30 AM 86.0 °F 96.9 °F 77.0 °F 74% 29.83 in 6.2 mi NW 11.5 mph - N/A   Mostly Cloudy
12:00 PM 86.0 °F 95.1 °F 75.2 °F 70% 29.83 in 6.2 mi West 9.2 mph - N/A   Mostly Cloudy
12:30 PM 86.0 °F 95.1 °F 75.2 °F 70% 29.80 in 6.2 mi West 5.8 mph - N/A   Mostly Cloudy
1:00 PM 87 °F - 75 °F 60% 29.80 in 6 mi WNW 9.2 mph - -   Mostly Cloudy
1:00 PM 87.8 °F 97.6 °F 75.2 °F 66% 29.80 in 6.2 mi WNW 9.2 mph - N/A   Mostly Cloudy
1:30 PM 87.8 °F 97.6 °F 75.2 °F 66% 29.77 in 6.2 mi NW 9.2 mph - N/A   Mostly Cloudy
2:00 PM 87.8 °F 99.7 °F 77.0 °F 70% 29.77 in 6.2 mi WNW 5.8 mph - N/A   Scattered Clouds
2:30 PM 89.6 °F 99.8 °F 75.2 °F 62% 29.77 in 6.2 mi WNW 6.9 mph - N/A   Scattered Clouds
3:00 PM 87.8 °F 99.7 °F 77.0 °F 70% 29.74 in 6.2 mi NW 5.8 mph - N/A   Scattered Clouds
3:30 PM 87.8 °F 99.7 °F 77.0 °F 70% 29.74 in 6.2 mi NW 8.1 mph - N/A   Mostly Cloudy
4:00 PM 86 °F - 75 °F 64% 29.77 in 6 mi NNW 9.2 mph - -   Overcast
4:00 PM 86.0 °F 95.1 °F 75.2 °F 70% 29.77 in 6.2 mi NNW 9.2 mph - N/A   Scattered Clouds
4:30 PM 86.0 °F 95.1 °F 75.2 °F 70% 29.77 in 6.2 mi NW 5.8 mph - N/A   Scattered Clouds
5:00 PM 86.0 °F 95.1 °F 75.2 °F 70% 29.77 in 6.2 mi WNW 5.8 mph - N/A   Scattered Clouds
5:30 PM 84.2 °F 92.3 °F 75.2 °F 74% 29.77 in 6.2 mi Calm Calm - N/A   Scattered Clouds
6:00 PM 84.2 °F 94.1 °F 77.0 °F 79% 29.77 in 6.2 mi Calm Calm - N/A   Scattered Clouds
6:30 PM 82.4 °F 90.9 °F 77.0 °F 84% 29.77 in 6.2 mi NNE 3.5 mph - N/A   Scattered Clouds
7:00 PM 83 °F - 78 °F 79% 29.81 in 6 mi NNE 4.6 mph - -   Overcast
7:00 PM 82.4 °F 90.9 °F 77.0 °F 84% 29.80 in 6.2 mi North 4.6 mph - N/A   Scattered Clouds
7:30 PM 82.4 °F 90.9 °F 77.0 °F 84% 29.80 in 6.2 mi North 4.6 mph - N/A   Scattered Clouds
8:00 PM 80.6 °F 87.1 °F 77.0 °F 89% 29.83 in 6.2 mi Calm Calm - N/A   Scattered Clouds
8:30 PM 80.6 °F 87.1 °F 77.0 °F 89% 29.83 in 6.2 mi North 4.6 mph - N/A   Scattered Clouds
9:00 PM 80.6 °F 87.1 °F 77.0 °F 89% 29.86 in 6.2 mi Calm Calm - N/A   Scattered Clouds
9:30 PM 80.6 °F 87.1 °F 77.0 °F 89% 29.83 in 6.2 mi Calm Calm - N/A   Scattered Clouds
10:00 PM 81 °F - 78 °F 86% 29.87 in 2 mi WNW 8.1 mph - - Rain Light Rain
10:00 PM 80.6 °F 87.1 °F 77.0 °F 89% 29.86 in 1.9 mi WNW 8.1 mph - N/A Rain Light Rain